This is the latest recevied weather packets stored in our database for station/object WD4IXD-WX. If no packets are shown the sender has not sent any weather packets the latest 1 day(s).
| Time | Temp. | Humidity | Pressure | Rain* | Wind** | Luminosity | Snow |
|---|---|---|---|---|---|---|---|
| 1778040604 | -3.33° C | 90% | 1014.4 hPa | 0 mm | - | 0 W/m² | - |
| 1778040304 | -3.33° C | 90% | 1014.3 hPa | 0 mm | - | 0 W/m² | - |
| 1778039704 | -3.33° C | 90% | 1014.5 hPa | 0 mm | - | 0 W/m² | - |
| 1778037604 | -3.33° C | 90% | 1014 hPa | 0 mm | - | 0 W/m² | - |
| 1778036704 | -3.33° C | 90% | 1013.8 hPa | 0 mm | - | 0 W/m² | - |
| 1778036104 | -2.78° C | 90% | 1013.8 hPa | 0 mm | - | 0 W/m² | - |
| 1778035504 | -2.78° C | 90% | 1013.6 hPa | 0 mm | - | 0 W/m² | - |
| 1778035204 | -2.78° C | 91% | 1013.5 hPa | 0 mm | - | 0 W/m² | - |
| 1778034604 | -2.78° C | 91% | 1013.3 hPa | 0 mm | - | 0 W/m² | - |
| 1778034304 | -2.78° C | 91% | 1013.1 hPa | 0 mm | - | 0 W/m² | - |
| 1778031604 | -2.78° C | 90% | 1012.7 hPa | 0 mm | - | 9 W/m² | - |
| 1778031004 | -2.78° C | 90% | 1012.5 hPa | 0 mm | - | 16 W/m² | - |
| 1778030404 | -2.22° C | 90% | 1012.4 hPa | 0 mm | - | 28 W/m² | - |
| 1778029804 | -2.22° C | 89% | 1012.5 hPa | 0 mm | - | 65 W/m² | - |
| 1778028904 | -1.67° C | 89% | 1012.1 hPa | 0 mm | - | 25 W/m² | - |
| 1778028304 | -1.67° C | 88% | 1012.1 hPa | 0 mm | - | 11 W/m² | - |
| 1778027104 | -1.11° C | 86% | 1012.2 hPa | 0 mm | - | 84 W/m² | - |
| 1778026504 | -0.56° C | 84% | 1012 hPa | 0 mm | - | 42 W/m² | - |
| 1778025904 | 0.56° C | 80% | 1012.3 hPa | 0 mm | - | 28 W/m² | - |
| 1778024404 | 2.22° C | 78% | 1011.7 hPa | 0 mm | - | 155 W/m² | - |
| 1778023804 | 2.22° C | 78% | 1011.7 hPa | 0 mm | - | 202 W/m² | - |
* Rain latest hour (hover to see other rain measurements)
** Current wind speed in m/s (hover to see current wind gust speed)